This is the latest recevied weather packets stored in our database for station/object M0HPP-13. If no packets are shown the sender has not sent any weather packets the latest 10 day(s).
| Time | Temp. | Humidity | Pressure | Rain* | Wind** | Luminosity | Snow |
|---|---|---|---|---|---|---|---|
| 1777462819 | 13.33° C | 72% | 1029.6 hPa | 0 mm | - | 558 W/m² | - |
| 1777462219 | 13.33° C | 71% | 1029.6 hPa | 0 mm | - | 552 W/m² | - |
| 1777461619 | 13.33° C | 72% | 1029.7 hPa | 0 mm | - | 545 W/m² | - |
| 1777461019 | 13.33° C | 74% | 1029.8 hPa | 0 mm | - | 530 W/m² | - |
| 1777460419 | 13.33° C | 74% | 1029.8 hPa | 0 mm | - | 521 W/m² | - |
| 1777459819 | 13.33° C | 73% | 1029.9 hPa | 0 mm | - | 512 W/m² | - |
| 1777459219 | 13.33° C | 70% | 1029.9 hPa | 0 mm | - | 503 W/m² | - |
| 1777458619 | 13.33° C | 72% | 1029.9 hPa | 0 mm | - | 493 W/m² | - |
| 1777458019 | 13.33° C | 74% | 1029.9 hPa | 0 mm | - | 483 W/m² | - |
| 1777457419 | 12.78° C | 76% | 1029.9 hPa | 0 mm | - | 471 W/m² | - |
| 1777456819 | 12.78° C | 76% | 1029.9 hPa | 0 mm | - | 459 W/m² | - |
| 1777456219 | 12.22° C | 78% | 1029.9 hPa | 0 mm | - | 444 W/m² | - |
| 1777455619 | 12.22° C | 78% | 1029.9 hPa | 0 mm | - | 262 W/m² | - |
| 1777455019 | 12.22° C | 78% | 1029.9 hPa | 0 mm | - | 272 W/m² | - |
| 1777454419 | 11.67° C | 79% | 1030 hPa | 0 mm | - | 377 W/m² | - |
| 1777453819 | 11.67° C | 81% | 1030 hPa | 0 mm | - | 374 W/m² | - |
| 1777453219 | 11.67° C | 81% | 1029.9 hPa | 0 mm | - | 362 W/m² | - |
| 1777452619 | 12.22° C | 79% | 1030 hPa | 0 mm | - | 345 W/m² | - |
| 1777452019 | 12.22° C | 80% | 1029.9 hPa | 0 mm | - | 310 W/m² | - |
| 1777451419 | 11.11° C | 82% | 1030 hPa | 0 mm | - | 265 W/m² | - |
| 1777450819 | 11.11° C | 83% | 1030 hPa | 0 mm | - | 228 W/m² | - |
| 1777450219 | 11.11° C | 82% | 1030.1 hPa | 0 mm | - | 164 W/m² | - |
| 1777449619 | 10.56° C | 84% | 1030 hPa | 0 mm | - | 143 W/m² | - |
| 1777449019 | 10.56° C | 84% | 1030.1 hPa | 0 mm | - | 128 W/m² | - |
| 1777448419 | 10.56° C | 83% | 1030.1 hPa | 0 mm | - | 117 W/m² | - |
* Rain latest hour (hover to see other rain measurements)
** Current wind speed in m/s (hover to see current wind gust speed)